timestamp,wind_dir_avg,wind_spd_avg,wind_spd_max_dir,wind_spd_gust,battery_voltage,lat,long
2024-03-14 00:04:00+00:00,52.0,11.14,50.0,12.38,12.25,47.59359,-54.27349
2024-03-14 00:14:00+00:00,51.0,11.28,51.0,12.52,12.17,47.59359,-54.27349
2024-03-14 00:24:00+00:00,59.0,10.65,57.0,11.89,12.17,47.59359,-54.27349
2024-03-14 00:34:00+00:00,64.0,10.55,63.0,11.13,12.17,47.59359,-54.27349
2024-03-14 00:44:00+00:00,65.0,10.6,64.0,11.33,12.17,47.59359,-54.27349
2024-03-14 00:54:00+00:00,64.0,9.8,65.0,10.41,12.17,47.59359,-54.27349
2024-03-14 01:04:00+00:00,49.0,6.53,61.0,9.06,12.17,47.59359,-54.27349
2024-03-14 01:14:00+00:00,33.0,6.75,39.0,7.45,12.17,47.59359,-54.27349
2024-03-14 01:24:00+00:00,34.0,6.74,35.0,7.16,12.17,47.59359,-54.27349
2024-03-14 01:34:00+00:00,40.0,7.2,55.0,10.35,12.17,47.59359,-54.27349
2024-03-14 01:44:00+00:00,34.0,7.43,52.0,10.19,12.17,47.59359,-54.27349
2024-03-14 01:54:00+00:00,41.0,8.01,55.0,11.15,12.17,47.59359,-54.27349
2024-03-14 02:04:00+00:00,40.0,8.61,51.0,11.25,12.17,47.59359,-54.27349
2024-03-14 02:14:00+00:00,30.0,7.22,30.0,8.11,12.17,47.59359,-54.27349
2024-03-14 02:24:00+00:00,31.0,8.36,51.0,10.97,12.17,47.59359,-54.27349
2024-03-14 02:34:00+00:00,41.0,10.14,47.0,12.23,12.17,47.59359,-54.27349
2024-03-14 02:44:00+00:00,40.0,10.27,45.0,12.29,12.17,47.59359,-54.27349
2024-03-14 02:54:00+00:00,46.0,11.62,47.0,13.34,12.17,47.59359,-54.27349
2024-03-14 03:04:00+00:00,47.0,11.52,50.0,12.8,12.17,47.59359,-54.27349
2024-03-14 03:14:00+00:00,41.0,9.37,48.0,11.66,12.17,47.59359,-54.27349
2024-03-14 03:24:00+00:00,44.0,10.45,47.0,12.46,12.17,47.59359,-54.27349
2024-03-14 03:34:00+00:00,43.0,10.11,48.0,11.94,12.17,47.59359,-54.27349
2024-03-14 03:44:00+00:00,42.0,10.25,47.0,12.31,12.17,47.59359,-54.27349
2024-03-14 03:54:00+00:00,41.0,9.71,50.0,11.75,12.17,47.59359,-54.27349
2024-03-14 04:04:00+00:00,35.0,8.57,39.0,9.76,12.17,47.59359,-54.27349
2024-03-14 04:14:00+00:00,41.0,10.56,46.0,12.57,12.09,47.59359,-54.27349
2024-03-14 04:24:00+00:00,46.0,11.79,49.0,12.91,12.09,47.59359,-54.27349
2024-03-14 04:34:00+00:00,49.0,12.03,46.0,12.92,12.09,47.59359,-54.27349
2024-03-14 04:44:00+00:00,49.0,12.47,48.0,13.34,12.09,47.59359,-54.27349
2024-03-14 04:54:00+00:00,50.0,11.84,50.0,12.92,12.09,47.59359,-54.27349
2024-03-14 05:04:00+00:00,45.0,11.63,47.0,12.96,12.09,47.59359,-54.27349
2024-03-14 05:14:00+00:00,315.0,0.01,24.0,0.0,12.09,47.59359,-54.27349
2024-03-14 05:24:00+00:00,315.0,0.01,50.0,0.0,12.09,47.59359,-54.27349
2024-03-14 05:34:00+00:00,315.0,0.01,49.0,0.0,12.09,47.59359,-54.27349
2024-03-14 05:44:00+00:00,315.0,0.01,49.0,0.0,12.09,47.59359,-54.27349
2024-03-14 05:54:00+00:00,315.0,0.01,37.0,0.0,12.09,47.59359,-54.27349
2024-03-14 06:04:00+00:00,23.0,9.59,23.0,9.6,12.09,47.59359,-54.27349
2024-03-14 06:14:00+00:00,315.0,0.01,21.0,0.0,12.09,47.59359,-54.27349
2024-03-14 06:24:00+00:00,315.0,0.01,21.0,0.0,12.09,47.59359,-54.27349
2024-03-14 06:34:00+00:00,315.0,0.01,21.0,0.0,12.09,47.59359,-54.27349
2024-03-14 06:44:00+00:00,315.0,0.01,47.0,0.0,12.09,47.59359,-54.27349
2024-03-14 06:54:00+00:00,37.0,11.06,37.0,11.07,12.09,47.59359,-54.27349
2024-03-14 07:04:00+00:00,30.0,10.99,30.0,11.01,12.09,47.59359,-54.27349
2024-03-14 07:14:01+00:00,46.0,13.04,46.0,13.05,12.09,47.59359,-54.27349
2024-03-14 07:24:01+00:00,46.0,12.53,45.0,12.85,12.09,47.59359,-54.27349
2024-03-14 07:34:01+00:00,315.0,0.01,47.0,0.0,12.09,47.59359,-54.27349
2024-03-14 07:44:01+00:00,315.0,0.01,49.0,0.0,12.09,47.59359,-54.27349
2024-03-14 07:54:01+00:00,315.0,0.01,49.0,0.0,12.09,47.59359,-54.27349
2024-03-14 08:04:01+00:00,315.0,0.01,47.0,0.0,12.09,47.59359,-54.27349
2024-03-14 08:14:01+00:00,315.0,0.01,53.0,0.0,12.01,47.59359,-54.27349
2024-03-14 08:24:01+00:00,24.0,8.75,25.0,8.98,12.01,47.59359,-54.27349
2024-03-14 08:34:01+00:00,315.0,0.01,49.0,0.0,12.01,47.59359,-54.27349
2024-03-14 08:44:01+00:00,43.0,9.75,49.0,10.67,12.01,47.59359,-54.27349
2024-03-14 08:54:01+00:00,34.0,10.65,47.0,12.27,12.01,47.59359,-54.27349
2024-03-14 09:04:01+00:00,315.0,0.01,29.0,0.0,12.01,47.59359,-54.27349
2024-03-14 09:14:01+00:00,32.0,9.58,45.0,11.46,12.01,47.59359,-54.27349
2024-03-14 09:24:01+00:00,22.0,9.09,32.0,9.73,12.01,47.59359,-54.27349
2024-03-14 09:34:01+00:00,33.0,9.44,46.0,11.22,12.01,47.59359,-54.27349
2024-03-14 09:44:01+00:00,9.0,8.8,20.0,9.52,12.01,47.59359,-54.27349
2024-03-14 09:54:01+00:00,40.0,11.52,44.0,13.06,12.01,47.59359,-54.27349
2024-03-14 10:04:01+00:00,24.0,8.62,23.0,8.93,12.01,47.59359,-54.27349
2024-03-14 10:14:00+00:00,23.0,9.15,24.0,9.37,11.93,47.59359,-54.27349
2024-03-14 10:24:00+00:00,22.0,8.93,35.0,10.45,11.93,47.59359,-54.27349
2024-03-14 10:34:00+00:00,315.0,0.01,23.0,0.0,11.93,47.59359,-54.27349
2024-03-14 10:44:00+00:00,42.0,14.03,42.0,14.83,11.93,47.59359,-54.27349
2024-03-14 10:54:00+00:00,46.0,12.24,46.0,13.62,11.93,47.59359,-54.27349
2024-03-14 11:04:00+00:00,54.0,13.12,54.0,13.13,11.93,47.59359,-54.27349
2024-03-14 11:14:01+00:00,46.0,13.4,46.0,13.67,12.09,47.59359,-54.27349
2024-03-14 11:24:01+00:00,315.0,0.01,47.0,0.0,12.09,47.59359,-54.27349
2024-03-14 11:34:01+00:00,22.0,9.34,23.0,9.35,12.09,47.59359,-54.27349
2024-03-14 11:44:01+00:00,315.0,0.01,22.0,0.0,12.09,47.59359,-54.27349
2024-03-14 11:54:01+00:00,315.0,0.01,44.0,0.0,12.09,47.59359,-54.27349
2024-03-14 12:04:01+00:00,315.0,0.01,21.0,0.0,12.09,47.59359,-54.27349
2024-03-14 12:14:00+00:00,315.0,0.01,40.0,0.0,13.29,47.59359,-54.27349
2024-03-14 12:24:00+00:00,315.0,0.01,20.0,0.0,13.29,47.59359,-54.27349
2024-03-14 12:34:00+00:00,315.0,0.01,24.0,0.0,13.29,47.59359,-54.27349
2024-03-14 12:44:00+00:00,3.0,9.0,22.0,9.51,13.29,47.59359,-54.27349
2024-03-14 12:54:00+00:00,315.0,0.01,349.0,0.0,13.29,47.59359,-54.27349
2024-03-14 13:04:00+00:00,19.0,10.61,19.0,10.63,13.29,47.59359,-54.27349
2024-03-14 13:14:01+00:00,315.0,0.01,26.0,0.0,13.6,47.59359,-54.27349
2024-03-14 13:24:01+00:00,315.0,0.01,21.0,0.0,13.6,47.59359,-54.27349
2024-03-14 13:34:01+00:00,315.0,0.01,352.0,0.0,13.6,47.59359,-54.27349
2024-03-14 13:44:01+00:00,315.0,0.01,26.0,0.0,13.6,47.59359,-54.27349
2024-03-14 13:54:01+00:00,315.0,0.01,26.0,0.0,13.6,47.59359,-54.27349
2024-03-14 14:04:01+00:00,315.0,0.01,26.0,0.0,13.6,47.59359,-54.27349
2024-03-14 14:14:00+00:00,315.0,0.01,26.0,0.0,13.68,47.59359,-54.27349
2024-03-14 14:24:00+00:00,315.0,0.01,48.0,0.0,13.68,47.59359,-54.27349
2024-03-14 14:34:00+00:00,58.0,11.65,57.0,12.0,13.68,47.59359,-54.27349
2024-03-14 14:44:00+00:00,62.0,11.15,61.0,11.86,13.68,47.59359,-54.27349
2024-03-14 14:54:00+00:00,51.0,12.16,49.0,12.81,13.68,47.59359,-54.27349
2024-03-14 15:04:00+00:00,56.0,11.91,53.0,12.71,13.68,47.59359,-54.27349
2024-03-14 15:14:00+00:00,315.0,0.01,57.0,0.0,14.48,47.59359,-54.27349
2024-03-14 15:24:00+00:00,315.0,0.01,57.0,0.0,14.48,47.59359,-54.27349
2024-03-14 15:34:00+00:00,315.0,0.01,57.0,0.0,14.48,47.59359,-54.27349
2024-03-14 15:44:00+00:00,315.0,0.01,54.0,0.0,14.48,47.59359,-54.27349
2024-03-14 15:54:00+00:00,315.0,0.01,54.0,0.0,14.48,47.59359,-54.27349
2024-03-14 16:04:00+00:00,53.0,12.19,50.0,12.89,14.48,47.59359,-54.27349
2024-03-14 16:14:00+00:00,315.0,0.01,57.0,0.0,13.84,47.59359,-54.27349
2024-03-14 16:24:00+00:00,315.0,0.01,57.0,0.0,13.84,47.59359,-54.27349
2024-03-14 16:34:00+00:00,59.0,11.32,59.0,11.52,13.84,47.59359,-54.27349
2024-03-14 16:44:00+00:00,315.0,0.01,56.0,0.0,13.84,47.59359,-54.27349
2024-03-14 16:54:00+00:00,315.0,0.01,56.0,0.0,13.84,47.59359,-54.27349
2024-03-14 17:04:00+00:00,315.0,0.01,56.0,0.0,13.84,47.59359,-54.27349
2024-03-14 17:14:00+00:00,54.0,12.32,54.0,12.33,13.68,47.59359,-54.27349
2024-03-14 17:24:00+00:00,315.0,0.01,43.0,0.0,13.68,47.59359,-54.27349
2024-03-14 17:34:00+00:00,315.0,0.01,43.0,0.0,13.68,47.59359,-54.27349
2024-03-14 17:44:00+00:00,45.0,13.12,45.0,13.88,13.68,47.59359,-54.27349
2024-03-14 17:54:00+00:00,315.0,0.01,59.0,0.0,13.68,47.59359,-54.27349
2024-03-14 18:04:00+00:00,50.0,11.43,53.0,12.95,13.68,47.59359,-54.27349
2024-03-14 18:14:00+00:00,60.0,11.74,60.0,11.75,13.68,47.59359,-54.27349
2024-03-14 18:24:00+00:00,46.0,12.61,51.0,13.35,13.68,47.59359,-54.27349
2024-03-14 18:34:00+00:00,42.0,11.74,44.0,12.36,13.68,47.59359,-54.27349
2024-03-14 18:44:00+00:00,47.0,12.74,47.0,12.75,13.68,47.59359,-54.27349
2024-03-14 18:54:00+00:00,315.0,0.01,50.0,0.0,13.68,47.59359,-54.27349
2024-03-14 19:04:00+00:00,315.0,0.01,46.0,0.0,13.68,47.59359,-54.27349
2024-03-14 19:14:01+00:00,315.0,0.01,46.0,0.0,14.32,47.59359,-54.27349
2024-03-14 19:24:01+00:00,315.0,0.01,49.0,0.0,14.32,47.59359,-54.27349
2024-03-14 19:34:01+00:00,49.0,10.99,49.0,11.0,14.32,47.59359,-54.27349
2024-03-14 19:44:01+00:00,315.0,0.01,50.0,0.0,14.32,47.59359,-54.27349
2024-03-14 19:54:01+00:00,33.0,8.03,41.0,9.24,14.32,47.59359,-54.27349
2024-03-14 20:04:01+00:00,29.0,7.86,28.0,8.01,14.32,47.59359,-54.27349
2024-03-14 20:14:00+00:00,49.0,12.77,49.0,13.7,13.44,47.59359,-54.27349
2024-03-14 20:24:00+00:00,315.0,0.01,57.0,0.0,13.44,47.59359,-54.27349
2024-03-14 20:34:00+00:00,315.0,0.01,57.0,0.0,13.44,47.59359,-54.27349
2024-03-14 20:44:00+00:00,49.0,13.34,46.0,13.82,13.44,47.59359,-54.27349
2024-03-14 20:54:00+00:00,48.0,12.27,47.0,12.84,13.44,47.59359,-54.27349
2024-03-14 21:04:00+00:00,65.0,11.1,62.0,11.8,13.44,47.59359,-54.27349
2024-03-14 21:14:00+00:00,59.0,10.61,59.0,10.62,13.13,47.59359,-54.27349
2024-03-14 21:24:00+00:00,52.0,12.17,51.0,13.19,13.13,47.59359,-54.27349
2024-03-14 21:34:00+00:00,65.0,10.36,60.0,10.86,13.13,47.59359,-54.27349
2024-03-14 21:44:00+00:00,315.0,0.01,63.0,0.0,13.13,47.59359,-54.27349
2024-03-14 21:54:00+00:00,315.0,0.01,71.0,0.0,13.13,47.59359,-54.27349
2024-03-14 22:04:00+00:00,315.0,0.01,71.0,0.0,13.13,47.59359,-54.27349
2024-03-14 22:14:00+00:00,315.0,0.01,71.0,0.0,12.49,47.59359,-54.27349
2024-03-14 22:24:00+00:00,315.0,0.01,71.0,0.0,12.49,47.59359,-54.27349
2024-03-14 22:34:00+00:00,315.0,0.01,71.0,0.0,12.49,47.59359,-54.27349
2024-03-14 22:44:00+00:00,315.0,0.01,71.0,0.0,12.49,47.59359,-54.27349
2024-03-14 22:54:00+00:00,315.0,0.01,71.0,0.0,12.49,47.59359,-54.27349
2024-03-14 23:04:00+00:00,315.0,0.01,54.0,0.0,12.49,47.59359,-54.27349
2024-03-14 23:14:00+00:00,345.0,4.74,340.0,5.65,12.25,47.59359,-54.27349
2024-03-14 23:24:00+00:00,339.0,5.84,340.0,5.95,12.25,47.59359,-54.27349
2024-03-14 23:34:00+00:00,344.0,6.95,345.0,7.23,12.25,47.59359,-54.27349
2024-03-14 23:44:00+00:00,315.0,0.01,342.0,0.0,12.25,47.59359,-54.27349
2024-03-14 23:54:00+00:00,343.0,7.35,345.0,8.4,12.25,47.59359,-54.27349
